Year,Month,Day,Hour,Minute,Value (Times are PST for temperature in C)
2019,05,26,00,00,13.30
2019,05,26,00,01,13.30
2019,05,26,00,02,13.40
2019,05,26,00,03,13.40
2019,05,26,00,04,13.40
2019,05,26,00,05,13.40
2019,05,26,00,06,13.40
2019,05,26,00,07,13.40
2019,05,26,00,08,13.40
2019,05,26,00,09,13.40
2019,05,26,00,10,13.40
2019,05,26,00,11,13.40
2019,05,26,00,12,13.40
2019,05,26,00,13,13.40
2019,05,26,00,14,13.30
2019,05,26,00,15,13.30
2019,05,26,00,16,13.30
2019,05,26,00,17,13.30
2019,05,26,00,18,13.30
2019,05,26,00,19,13.30
2019,05,26,00,20,13.20
2019,05,26,00,21,13.20
2019,05,26,00,22,13.10
2019,05,26,00,23,13.10
2019,05,26,00,24,13.10
2019,05,26,00,25,13.00
2019,05,26,00,26,13.00
2019,05,26,00,27,12.90
2019,05,26,00,28,12.90
2019,05,26,00,29,12.90
2019,05,26,00,30,12.90
2019,05,26,00,31,12.90
2019,05,26,00,32,12.90
2019,05,26,00,33,12.90
2019,05,26,00,34,13.00
2019,05,26,00,35,13.00
2019,05,26,00,36,13.10
2019,05,26,00,37,13.10
2019,05,26,00,38,13.00
2019,05,26,00,39,13.00
2019,05,26,00,40,13.00
2019,05,26,00,41,12.90
2019,05,26,00,42,12.80
2019,05,26,00,43,12.70
2019,05,26,00,44,12.60
2019,05,26,00,45,12.50
2019,05,26,00,46,12.50
2019,05,26,00,47,12.40
2019,05,26,00,48,12.40
2019,05,26,00,49,12.40
2019,05,26,00,50,12.40
2019,05,26,00,51,12.30
2019,05,26,00,52,12.30
2019,05,26,00,53,12.20
2019,05,26,00,54,12.20
2019,05,26,00,55,12.10
2019,05,26,00,56,12.00
2019,05,26,00,57,11.90
2019,05,26,00,58,11.80
2019,05,26,00,59,11.80
2019,05,26,01,00,11.70
2019,05,26,01,01,11.70
2019,05,26,01,02,11.80
2019,05,26,01,03,11.80
2019,05,26,01,04,11.80
2019,05,26,01,05,11.80
2019,05,26,01,06,11.80
2019,05,26,01,07,11.80
2019,05,26,01,08,11.70
2019,05,26,01,09,11.60
2019,05,26,01,10,11.50
2019,05,26,01,11,11.50
2019,05,26,01,12,11.40
2019,05,26,01,13,11.30
2019,05,26,01,14,11.20
2019,05,26,01,15,11.20
2019,05,26,01,16,11.20
2019,05,26,01,17,11.20
2019,05,26,01,18,11.30
2019,05,26,01,19,11.30
2019,05,26,01,20,11.30
2019,05,26,01,21,11.20
2019,05,26,01,22,11.20
2019,05,26,01,23,11.20
2019,05,26,01,24,11.20
2019,05,26,01,25,11.20
2019,05,26,01,26,11.10
2019,05,26,01,27,11.00
2019,05,26,01,28,11.00
2019,05,26,01,29,10.90
2019,05,26,01,30,10.90
2019,05,26,01,31,10.90
2019,05,26,01,32,10.80
2019,05,26,01,33,10.80
2019,05,26,01,34,10.70
2019,05,26,01,35,10.70
2019,05,26,01,36,10.70
2019,05,26,01,37,10.70
2019,05,26,01,38,10.70
2019,05,26,01,39,10.70
2019,05,26,01,40,10.70
2019,05,26,01,41,10.80
2019,05,26,01,42,10.80
2019,05,26,01,43,10.90
2019,05,26,01,44,10.90
2019,05,26,01,45,10.90
2019,05,26,01,46,11.00
2019,05,26,01,47,11.10
2019,05,26,01,48,11.10
2019,05,26,01,49,11.10
2019,05,26,01,50,11.00
2019,05,26,01,51,11.00
2019,05,26,01,52,10.90
2019,05,26,01,53,10.80
2019,05,26,01,54,10.80
2019,05,26,01,55,10.70
2019,05,26,01,56,10.70
2019,05,26,01,57,10.60
2019,05,26,01,58,10.60
2019,05,26,01,59,10.60
2019,05,26,02,00,10.60
2019,05,26,02,01,10.50
2019,05,26,02,02,10.50
2019,05,26,02,03,10.40
2019,05,26,02,04,10.40
2019,05,26,02,05,10.40
2019,05,26,02,06,10.40
2019,05,26,02,07,10.30
2019,05,26,02,08,10.30
2019,05,26,02,09,10.30
2019,05,26,02,10,10.20
2019,05,26,02,11,10.10
2019,05,26,02,12,10.10
2019,05,26,02,13,10.10
2019,05,26,02,14,10.10
2019,05,26,02,15,10.00
2019,05,26,02,16,10.00
2019,05,26,02,17,10.00
2019,05,26,02,18,10.00
2019,05,26,02,19,9.90
2019,05,26,02,20,9.90
2019,05,26,02,21,9.90
2019,05,26,02,22,9.90
2019,05,26,02,23,9.80
2019,05,26,02,24,9.80
2019,05,26,02,25,9.80
2019,05,26,02,26,9.80
2019,05,26,02,27,9.80
2019,05,26,02,28,9.80
2019,05,26,02,29,9.80
2019,05,26,02,30,9.80
2019,05,26,02,31,9.90
2019,05,26,02,32,9.90
2019,05,26,02,33,10.00
2019,05,26,02,34,10.10
2019,05,26,02,35,10.10
2019,05,26,02,36,10.20
2019,05,26,02,37,10.20
2019,05,26,02,38,10.20
2019,05,26,02,39,10.30
2019,05,26,02,40,10.30
2019,05,26,02,41,10.30
2019,05,26,02,42,10.30
2019,05,26,02,43,10.30
2019,05,26,02,44,10.30
2019,05,26,02,45,10.30
2019,05,26,02,46,10.30
2019,05,26,02,47,10.30
2019,05,26,02,48,10.30
2019,05,26,02,49,10.30
2019,05,26,02,50,10.30
2019,05,26,02,51,10.40
2019,05,26,02,52,10.40
2019,05,26,02,53,10.40
2019,05,26,02,54,10.40
2019,05,26,02,55,10.30
2019,05,26,02,56,10.30
2019,05,26,02,57,10.30
2019,05,26,02,58,10.30
2019,05,26,02,59,10.30
2019,05,26,03,00,10.30
2019,05,26,03,01,10.30
2019,05,26,03,02,10.30
2019,05,26,03,03,10.40
2019,05,26,03,04,10.40
2019,05,26,03,05,10.40
2019,05,26,03,06,10.30
2019,05,26,03,07,10.30
2019,05,26,03,08,10.30
2019,05,26,03,09,10.20
2019,05,26,03,10,10.10
2019,05,26,03,11,10.10
2019,05,26,03,12,10.00
2019,05,26,03,13,9.90
2019,05,26,03,14,9.90
2019,05,26,03,15,9.90
2019,05,26,03,16,9.80
2019,05,26,03,17,9.80
2019,05,26,03,18,9.70
2019,05,26,03,19,9.70
2019,05,26,03,20,9.70
2019,05,26,03,21,9.60
2019,05,26,03,22,9.60
2019,05,26,03,23,9.60
2019,05,26,03,24,9.60
2019,05,26,03,25,9.60
2019,05,26,03,26,9.60
2019,05,26,03,27,9.50
2019,05,26,03,28,9.50
2019,05,26,03,29,9.50
2019,05,26,03,30,9.60
2019,05,26,03,31,9.60
2019,05,26,03,32,9.60
2019,05,26,03,33,9.50
2019,05,26,03,34,9.50
2019,05,26,03,35,9.50
2019,05,26,03,36,9.40
2019,05,26,03,37,9.40
2019,05,26,03,38,9.40
2019,05,26,03,39,9.30
2019,05,26,03,40,9.30
2019,05,26,03,41,9.30
2019,05,26,03,42,9.30
2019,05,26,03,43,9.20
2019,05,26,03,44,9.20
2019,05,26,03,45,9.20
2019,05,26,03,46,9.20
2019,05,26,03,47,9.10
2019,05,26,03,48,9.10
2019,05,26,03,49,9.10
2019,05,26,03,50,9.00
2019,05,26,03,51,9.00
2019,05,26,03,52,9.00
2019,05,26,03,53,8.90
2019,05,26,03,54,8.90
2019,05,26,03,55,8.90
2019,05,26,03,56,8.90
2019,05,26,03,57,8.90
2019,05,26,03,58,8.80
2019,05,26,03,59,8.80
2019,05,26,04,00,8.80
2019,05,26,04,01,8.80
2019,05,26,04,02,8.80
2019,05,26,04,03,8.80
2019,05,26,04,04,8.70
2019,05,26,04,05,8.70
2019,05,26,04,06,8.80
2019,05,26,04,07,8.80
2019,05,26,04,08,8.80
2019,05,26,04,09,8.80
2019,05,26,04,10,8.70
2019,05,26,04,11,8.70
2019,05,26,04,12,8.70
2019,05,26,04,13,8.70
2019,05,26,04,14,8.70
2019,05,26,04,15,8.60
2019,05,26,04,16,8.60
2019,05,26,04,17,8.60
2019,05,26,04,18,8.60
2019,05,26,04,19,8.50
2019,05,26,04,20,8.50
2019,05,26,04,21,8.40
2019,05,26,04,22,8.40
2019,05,26,04,23,8.40
2019,05,26,04,24,8.40
2019,05,26,04,25,8.40
2019,05,26,04,26,8.40
2019,05,26,04,27,8.40
2019,05,26,04,28,8.40
2019,05,26,04,29,8.40
2019,05,26,04,30,8.40
2019,05,26,04,31,8.40
2019,05,26,04,32,8.40
2019,05,26,04,33,8.40
2019,05,26,04,34,8.40
2019,05,26,04,35,8.50
2019,05,26,04,36,8.50
2019,05,26,04,37,8.60
2019,05,26,04,38,8.70
2019,05,26,04,39,8.70
2019,05,26,04,40,8.70
2019,05,26,04,41,8.70
2019,05,26,04,42,8.80
2019,05,26,04,43,8.80
2019,05,26,04,44,8.90
2019,05,26,04,45,8.90
2019,05,26,04,46,9.00
2019,05,26,04,47,8.90
2019,05,26,04,48,8.90
2019,05,26,04,49,8.90
2019,05,26,04,50,8.80
2019,05,26,04,51,8.80
2019,05,26,04,52,8.80
2019,05,26,04,53,8.70
2019,05,26,04,54,8.70
2019,05,26,04,55,8.70
2019,05,26,04,56,8.70
2019,05,26,04,57,8.60
2019,05,26,04,58,8.70
2019,05,26,04,59,8.70
2019,05,26,05,00,8.70
2019,05,26,05,01,8.70
2019,05,26,05,02,8.70
2019,05,26,05,03,8.80
2019,05,26,05,04,8.80
2019,05,26,05,05,8.80
2019,05,26,05,06,8.80
2019,05,26,05,07,8.80
2019,05,26,05,08,8.80
2019,05,26,05,09,8.80
2019,05,26,05,10,8.70
2019,05,26,05,11,8.70
2019,05,26,05,12,8.70
2019,05,26,05,13,8.70
2019,05,26,05,14,8.60
2019,05,26,05,15,8.60
2019,05,26,05,16,8.70
2019,05,26,05,17,8.70
2019,05,26,05,18,8.80
2019,05,26,05,19,8.80
2019,05,26,05,20,8.90
2019,05,26,05,21,9.00
2019,05,26,05,22,9.00
2019,05,26,05,23,9.10
2019,05,26,05,24,9.00
2019,05,26,05,25,9.00
2019,05,26,05,26,8.90
2019,05,26,05,27,9.00
2019,05,26,05,28,9.10
2019,05,26,05,29,9.10
2019,05,26,05,30,9.20
2019,05,26,05,31,9.30
2019,05,26,05,32,9.30
2019,05,26,05,33,9.30
2019,05,26,05,34,9.30
2019,05,26,05,35,9.30
2019,05,26,05,36,9.30
2019,05,26,05,37,9.30
2019,05,26,05,38,9.30
2019,05,26,05,39,9.20
2019,05,26,05,40,9.10
2019,05,26,05,41,9.10
2019,05,26,05,42,9.00
2019,05,26,05,43,8.90
2019,05,26,05,44,8.90
2019,05,26,05,45,8.90
2019,05,26,05,46,8.80
2019,05,26,05,47,8.80
2019,05,26,05,48,8.80
2019,05,26,05,49,8.80
2019,05,26,05,50,8.80
2019,05,26,05,51,8.80
2019,05,26,05,52,8.80
2019,05,26,05,53,8.80
2019,05,26,05,54,8.80
2019,05,26,05,55,8.80
2019,05,26,05,56,8.80
2019,05,26,05,57,8.80
2019,05,26,05,58,8.70
2019,05,26,05,59,8.70
2019,05,26,06,00,8.70
2019,05,26,06,01,8.80
2019,05,26,06,02,8.80
2019,05,26,06,03,8.80
2019,05,26,06,04,8.80
2019,05,26,06,05,8.80
2019,05,26,06,06,8.70
2019,05,26,06,07,8.70
2019,05,26,06,08,8.80
2019,05,26,06,09,8.90
2019,05,26,06,10,9.00
2019,05,26,06,11,9.00
2019,05,26,06,12,9.10
2019,05,26,06,13,9.10
2019,05,26,06,14,9.10
2019,05,26,06,15,9.00
2019,05,26,06,16,9.00
2019,05,26,06,17,9.00
2019,05,26,06,18,9.00
2019,05,26,06,19,9.00
2019,05,26,06,20,9.10
2019,05,26,06,21,9.10
2019,05,26,06,22,9.10
2019,05,26,06,23,9.20
2019,05,26,06,24,9.20
2019,05,26,06,25,9.30
2019,05,26,06,26,9.30
2019,05,26,06,27,9.40
2019,05,26,06,28,9.50
2019,05,26,06,29,9.60
2019,05,26,06,30,9.70
2019,05,26,06,31,9.70
2019,05,26,06,32,9.80
2019,05,26,06,33,9.90
2019,05,26,06,34,10.00
2019,05,26,06,35,10.00
2019,05,26,06,36,10.10
2019,05,26,06,37,10.20
2019,05,26,06,38,10.20
2019,05,26,06,39,10.30
2019,05,26,06,40,10.30
2019,05,26,06,41,10.40
2019,05,26,06,42,10.50
2019,05,26,06,43,10.50
2019,05,26,06,44,10.60
2019,05,26,06,45,10.60
2019,05,26,06,46,10.70
2019,05,26,06,47,10.70
2019,05,26,06,48,10.70
2019,05,26,06,49,10.80
2019,05,26,06,50,10.80
2019,05,26,06,51,10.90
2019,05,26,06,52,10.90
2019,05,26,06,53,10.90
2019,05,26,06,54,11.00
2019,05,26,06,55,11.00
2019,05,26,06,56,11.10
2019,05,26,06,57,11.10
2019,05,26,06,58,11.10
2019,05,26,06,59,11.10
2019,05,26,07,00,11.20
2019,05,26,07,01,11.20
2019,05,26,07,02,11.30
2019,05,26,07,03,11.30
2019,05,26,07,04,11.40
2019,05,26,07,05,11.50
2019,05,26,07,06,11.50
2019,05,26,07,07,11.60
2019,05,26,07,08,11.60
2019,05,26,07,09,11.70
2019,05,26,07,10,11.70
2019,05,26,07,11,11.80
2019,05,26,07,12,11.80
2019,05,26,07,13,11.80
2019,05,26,07,14,11.90
2019,05,26,07,15,11.90
2019,05,26,07,16,12.00
2019,05,26,07,17,12.10
2019,05,26,07,18,12.10
2019,05,26,07,19,12.20
2019,05,26,07,20,12.20
2019,05,26,07,21,12.20
2019,05,26,07,22,12.30
2019,05,26,07,23,12.40
2019,05,26,07,24,12.40
2019,05,26,07,25,12.50
2019,05,26,07,26,12.50
2019,05,26,07,27,12.60
2019,05,26,07,28,12.60
2019,05,26,07,29,12.70
2019,05,26,07,30,12.80
2019,05,26,07,31,12.80
2019,05,26,07,32,12.90
2019,05,26,07,33,12.90
2019,05,26,07,34,13.00
2019,05,26,07,35,13.00
2019,05,26,07,36,13.00
2019,05,26,07,37,13.00
2019,05,26,07,38,13.00
2019,05,26,07,39,13.00
2019,05,26,07,40,12.90
2019,05,26,07,41,12.90
2019,05,26,07,42,12.90
2019,05,26,07,43,12.90
2019,05,26,07,44,12.90
2019,05,26,07,45,12.90
2019,05,26,07,46,12.90
2019,05,26,07,47,12.90
2019,05,26,07,48,12.90
2019,05,26,07,49,12.90
2019,05,26,07,50,12.90
2019,05,26,07,51,12.90
2019,05,26,07,52,12.90
2019,05,26,07,53,12.90
2019,05,26,07,54,12.90
2019,05,26,07,55,12.90
2019,05,26,07,56,13.00
2019,05,26,07,57,13.00
2019,05,26,07,58,13.00
2019,05,26,07,59,13.10
2019,05,26,08,00,13.10
2019,05,26,08,01,13.10
2019,05,26,08,02,13.10
2019,05,26,08,03,13.10
2019,05,26,08,04,13.10
2019,05,26,08,05,13.20
2019,05,26,08,06,13.20
2019,05,26,08,07,13.20
2019,05,26,08,08,13.30
2019,05,26,08,09,13.30
2019,05,26,08,10,13.40
2019,05,26,08,11,13.40
2019,05,26,08,12,13.40
2019,05,26,08,13,13.40
2019,05,26,08,14,13.50
2019,05,26,08,15,13.50
2019,05,26,08,16,13.50
2019,05,26,08,17,13.60
2019,05,26,08,18,13.60
2019,05,26,08,19,13.60
2019,05,26,08,20,13.70
2019,05,26,08,21,13.70
2019,05,26,08,22,13.70
2019,05,26,08,23,13.70
2019,05,26,08,24,13.70
2019,05,26,08,25,13.80
2019,05,26,08,26,13.80
2019,05,26,08,27,13.80
2019,05,26,08,28,13.80
2019,05,26,08,29,13.80
2019,05,26,08,30,13.80
2019,05,26,08,31,13.80
2019,05,26,08,32,13.80
2019,05,26,08,33,13.90
2019,05,26,08,34,14.00
2019,05,26,08,35,14.00
2019,05,26,08,36,14.10
2019,05,26,08,37,14.20
2019,05,26,08,38,14.20
2019,05,26,08,39,14.20
2019,05,26,08,40,14.30
2019,05,26,08,41,14.30
2019,05,26,08,42,14.40
2019,05,26,08,43,14.40
2019,05,26,08,44,14.50
2019,05,26,08,45,14.60
2019,05,26,08,46,14.70
2019,05,26,08,47,14.70
2019,05,26,08,48,14.70
2019,05,26,08,49,14.80
2019,05,26,08,50,14.80
2019,05,26,08,51,14.80
2019,05,26,08,52,14.80
2019,05,26,08,53,14.80
2019,05,26,08,54,14.80
2019,05,26,08,55,14.90
2019,05,26,08,56,14.90
2019,05,26,08,57,14.90
2019,05,26,08,58,14.90
2019,05,26,08,59,14.90
2019,05,26,09,00,14.90
2019,05,26,09,01,14.90
2019,05,26,09,02,14.80
2019,05,26,09,03,14.80
2019,05,26,09,04,14.80
2019,05,26,09,05,14.80
2019,05,26,09,06,14.80
2019,05,26,09,07,14.80
2019,05,26,09,08,14.90
2019,05,26,09,09,14.90
2019,05,26,09,10,14.90
2019,05,26,09,11,15.00
2019,05,26,09,12,15.00
2019,05,26,09,13,15.10
2019,05,26,09,14,15.10
2019,05,26,09,15,15.10
2019,05,26,09,16,15.20
2019,05,26,09,17,15.20
2019,05,26,09,18,15.20
2019,05,26,09,19,15.30
2019,05,26,09,20,15.30
2019,05,26,09,21,15.30
2019,05,26,09,22,15.30
2019,05,26,09,23,15.30
2019,05,26,09,24,15.30
2019,05,26,09,25,15.30
2019,05,26,09,26,15.30
2019,05,26,09,27,15.40
2019,05,26,09,28,15.40
2019,05,26,09,29,15.50
2019,05,26,09,30,15.60
2019,05,26,09,31,15.60
2019,05,26,09,32,15.70
2019,05,26,09,33,15.70
2019,05,26,09,34,15.80
2019,05,26,09,35,15.80
2019,05,26,09,36,15.80
2019,05,26,09,37,15.90
2019,05,26,09,38,15.90
2019,05,26,09,39,16.00
2019,05,26,09,40,16.00
2019,05,26,09,41,16.00
2019,05,26,09,42,16.00
2019,05,26,09,43,16.00
2019,05,26,09,44,16.00
2019,05,26,09,45,16.00
2019,05,26,09,46,16.10
2019,05,26,09,47,16.10
2019,05,26,09,48,16.10
2019,05,26,09,49,16.10
2019,05,26,09,50,16.10
2019,05,26,09,51,16.10
2019,05,26,09,52,16.10
2019,05,26,09,53,16.10
2019,05,26,09,54,16.10
2019,05,26,09,55,16.10
2019,05,26,09,56,16.00
2019,05,26,09,57,16.00
2019,05,26,09,58,16.00
2019,05,26,09,59,16.10
2019,05,26,10,00,16.10
2019,05,26,10,01,16.10
2019,05,26,10,02,16.10
2019,05,26,10,03,16.20
2019,05,26,10,04,16.20
2019,05,26,10,05,16.20
2019,05,26,10,06,16.20
2019,05,26,10,07,16.20
2019,05,26,10,08,16.30
2019,05,26,10,09,16.30
2019,05,26,10,10,16.40
2019,05,26,10,11,16.40
2019,05,26,10,12,16.50
2019,05,26,10,13,16.50
2019,05,26,10,14,16.50
2019,05,26,10,15,16.50
2019,05,26,10,16,16.50
2019,05,26,10,17,16.50
2019,05,26,10,18,16.50
2019,05,26,10,19,16.40
2019,05,26,10,20,16.40
2019,05,26,10,21,16.40
2019,05,26,10,22,16.30
2019,05,26,10,23,16.30
2019,05,26,10,24,16.30
2019,05,26,10,25,16.30
2019,05,26,10,26,16.30
2019,05,26,10,27,16.30
2019,05,26,10,28,16.20
2019,05,26,10,29,16.10
2019,05,26,10,30,16.10
2019,05,26,10,31,16.10
2019,05,26,10,32,16.10
2019,05,26,10,33,16.10
2019,05,26,10,34,16.20
2019,05,26,10,35,16.20
2019,05,26,10,36,16.30
2019,05,26,10,37,16.40
2019,05,26,10,38,16.50
2019,05,26,10,39,16.60
2019,05,26,10,40,16.70
2019,05,26,10,41,16.80
2019,05,26,10,42,16.80
2019,05,26,10,43,16.90
2019,05,26,10,44,16.90
2019,05,26,10,45,17.00
2019,05,26,10,46,17.00
2019,05,26,10,47,17.10
2019,05,26,10,48,17.10
2019,05,26,10,49,17.20
2019,05,26,10,50,17.30
2019,05,26,10,51,17.30
2019,05,26,10,52,17.30
2019,05,26,10,53,17.30
2019,05,26,10,54,17.30
2019,05,26,10,55,17.40
2019,05,26,10,56,17.50
2019,05,26,10,57,17.60
2019,05,26,10,58,17.60
2019,05,26,10,59,17.70
2019,05,26,11,00,17.80
2019,05,26,11,01,17.90
2019,05,26,11,02,17.90
2019,05,26,11,03,18.00
2019,05,26,11,04,18.10
2019,05,26,11,05,18.20
2019,05,26,11,06,18.20
2019,05,26,11,07,18.30
2019,05,26,11,08,18.40
2019,05,26,11,09,18.40
2019,05,26,11,10,18.50
2019,05,26,11,11,18.50
2019,05,26,11,12,18.60
2019,05,26,11,13,18.60
2019,05,26,11,14,18.70
2019,05,26,11,15,18.70
2019,05,26,11,16,18.70
2019,05,26,11,17,18.70
2019,05,26,11,18,18.70
2019,05,26,11,19,18.80
2019,05,26,11,20,18.80
2019,05,26,11,21,18.90
2019,05,26,11,22,19.00
2019,05,26,11,23,19.00
2019,05,26,11,24,19.10
2019,05,26,11,25,19.10
2019,05,26,11,26,19.20
2019,05,26,11,27,19.20
2019,05,26,11,28,19.30
2019,05,26,11,29,19.30
2019,05,26,11,30,19.40
2019,05,26,11,31,19.50
2019,05,26,11,32,19.60
2019,05,26,11,33,19.80
2019,05,26,11,34,19.90
2019,05,26,11,35,20.10
2019,05,26,11,36,20.30
2019,05,26,11,37,20.40
2019,05,26,11,38,20.40
2019,05,26,11,39,20.50
2019,05,26,11,40,20.60
2019,05,26,11,41,20.60
2019,05,26,11,42,20.60
2019,05,26,11,43,20.60
2019,05,26,11,44,20.60
2019,05,26,11,45,20.60
2019,05,26,11,46,20.60
2019,05,26,11,47,20.70
2019,05,26,11,48,20.70
2019,05,26,11,49,20.70
2019,05,26,11,50,20.80
2019,05,26,11,51,20.90
2019,05,26,11,52,21.10
2019,05,26,11,53,21.20
2019,05,26,11,54,21.30
2019,05,26,11,55,21.30
2019,05,26,11,56,21.30
2019,05,26,11,57,21.30
2019,05,26,11,58,21.30
2019,05,26,11,59,21.30
2019,05,26,12,00,21.30
2019,05,26,12,01,21.30
2019,05,26,12,02,21.40
2019,05,26,12,03,21.40
2019,05,26,12,04,21.50
2019,05,26,12,05,21.60
2019,05,26,12,06,21.60
2019,05,26,12,07,21.60
2019,05,26,12,08,21.70
2019,05,26,12,09,21.70
2019,05,26,12,10,21.70
2019,05,26,12,11,21.70
2019,05,26,12,12,21.70
2019,05,26,12,13,21.70
2019,05,26,12,14,21.70
2019,05,26,12,15,21.70
2019,05,26,12,16,21.70
2019,05,26,12,17,21.70
2019,05,26,12,18,21.80
2019,05,26,12,19,21.80
2019,05,26,12,20,21.90
2019,05,26,12,21,21.90
2019,05,26,12,22,22.00
2019,05,26,12,23,22.10
2019,05,26,12,24,22.20
2019,05,26,12,25,22.20
2019,05,26,12,26,22.30
2019,05,26,12,27,22.30
2019,05,26,12,28,22.30
2019,05,26,12,29,22.30
2019,05,26,12,30,22.30
2019,05,26,12,31,22.40
2019,05,26,12,32,22.40
2019,05,26,12,33,22.50
2019,05,26,12,34,22.50
2019,05,26,12,35,22.60
2019,05,26,12,36,22.60
2019,05,26,12,37,22.60
2019,05,26,12,38,22.70
2019,05,26,12,39,22.70
2019,05,26,12,40,22.80
2019,05,26,12,41,22.90
2019,05,26,12,42,23.10
2019,05,26,12,43,23.20
2019,05,26,12,44,23.20
2019,05,26,12,45,23.30
2019,05,26,12,46,23.30
2019,05,26,12,47,23.30
2019,05,26,12,48,23.40
2019,05,26,12,49,23.30
2019,05,26,12,50,23.30
2019,05,26,12,51,23.30
2019,05,26,12,52,23.30
2019,05,26,12,53,23.40
2019,05,26,12,54,23.40
2019,05,26,12,55,23.40
2019,05,26,12,56,23.40
2019,05,26,12,57,23.40
2019,05,26,12,58,23.40
2019,05,26,12,59,23.40
2019,05,26,13,00,23.50
2019,05,26,13,01,23.50
2019,05,26,13,02,23.50
2019,05,26,13,03,23.60
2019,05,26,13,04,23.70
2019,05,26,13,05,23.70
2019,05,26,13,06,23.70
2019,05,26,13,07,23.60
2019,05,26,13,08,23.40
2019,05,26,13,09,23.30
2019,05,26,13,10,23.10
2019,05,26,13,11,22.80
2019,05,26,13,12,22.60
2019,05,26,13,13,22.40
2019,05,26,13,14,22.20
2019,05,26,13,15,22.10
2019,05,26,13,16,22.00
2019,05,26,13,17,21.90
2019,05,26,13,18,21.80
2019,05,26,13,19,21.80
2019,05,26,13,20,21.70
2019,05,26,13,21,21.70
2019,05,26,13,22,21.70
2019,05,26,13,23,21.70
2019,05,26,13,24,21.80
2019,05,26,13,25,21.80
2019,05,26,13,26,21.90
2019,05,26,13,27,22.00
2019,05,26,13,28,22.10
2019,05,26,13,29,22.10
2019,05,26,13,30,22.20
2019,05,26,13,31,22.30
2019,05,26,13,32,22.40
2019,05,26,13,33,22.50
2019,05,26,13,34,22.60
2019,05,26,13,35,22.70
2019,05,26,13,36,22.70
2019,05,26,13,37,22.80
2019,05,26,13,38,23.00
2019,05,26,13,39,23.10
2019,05,26,13,40,23.20
2019,05,26,13,41,23.30
2019,05,26,13,42,23.40
2019,05,26,13,43,23.50
2019,05,26,13,44,23.50
2019,05,26,13,45,23.60
2019,05,26,13,46,23.70
2019,05,26,13,47,23.80
2019,05,26,13,48,23.90
2019,05,26,13,49,24.00
2019,05,26,13,50,24.20
2019,05,26,13,51,24.30
2019,05,26,13,52,24.40
2019,05,26,13,53,24.60
2019,05,26,13,54,24.70
2019,05,26,13,55,24.80
2019,05,26,13,56,24.90
2019,05,26,13,57,25.00
2019,05,26,13,58,25.10
2019,05,26,13,59,25.20
2019,05,26,14,00,25.30
2019,05,26,14,01,25.40
2019,05,26,14,02,25.50
2019,05,26,14,03,25.60
2019,05,26,14,04,25.60
2019,05,26,14,05,25.70
2019,05,26,14,06,25.70
2019,05,26,14,07,25.80
2019,05,26,14,08,25.90
2019,05,26,14,09,26.10
2019,05,26,14,10,26.20
2019,05,26,14,11,26.20
2019,05,26,14,12,26.20
2019,05,26,14,13,26.20
2019,05,26,14,14,26.20
2019,05,26,14,15,26.20
2019,05,26,14,16,26.10
2019,05,26,14,17,26.10
2019,05,26,14,18,26.20
2019,05,26,14,19,26.20
2019,05,26,14,20,26.20
2019,05,26,14,21,26.20
2019,05,26,14,22,26.20
2019,05,26,14,23,26.30
2019,05,26,14,24,26.30
2019,05,26,14,25,26.30
2019,05,26,14,26,26.30
2019,05,26,14,27,26.40
2019,05,26,14,28,26.40
2019,05,26,14,29,26.40
2019,05,26,14,30,26.30
2019,05,26,14,31,26.20
2019,05,26,14,32,26.00
2019,05,26,14,33,25.90
2019,05,26,14,34,25.80
2019,05,26,14,35,25.70
2019,05,26,14,36,25.70
2019,05,26,14,37,25.70
2019,05,26,14,38,25.60
2019,05,26,14,39,25.60
2019,05,26,14,40,25.60
2019,05,26,14,41,25.60
2019,05,26,14,42,25.60
2019,05,26,14,43,25.70
2019,05,26,14,44,25.70
2019,05,26,14,45,25.80
2019,05,26,14,46,25.80
2019,05,26,14,47,25.90
2019,05,26,14,48,26.00
2019,05,26,14,49,26.10
2019,05,26,14,50,26.20
2019,05,26,14,51,26.30
2019,05,26,14,52,26.40
2019,05,26,14,53,26.50
2019,05,26,14,54,26.60
2019,05,26,14,55,26.70
2019,05,26,14,56,26.70
2019,05,26,14,57,26.80
2019,05,26,14,58,26.90
2019,05,26,14,59,26.90
2019,05,26,15,00,26.90
2019,05,26,15,01,26.90
2019,05,26,15,02,26.90
2019,05,26,15,03,27.00
2019,05,26,15,04,27.10
2019,05,26,15,05,27.20
2019,05,26,15,06,27.30
2019,05,26,15,07,27.30
2019,05,26,15,08,27.40
2019,05,26,15,09,27.50
2019,05,26,15,10,27.60
2019,05,26,15,11,27.60
2019,05,26,15,12,27.70
2019,05,26,15,13,27.70
2019,05,26,15,14,27.80
2019,05,26,15,15,27.90
2019,05,26,15,16,27.90
2019,05,26,15,17,28.00
2019,05,26,15,18,28.00
2019,05,26,15,19,28.10
2019,05,26,15,20,28.20
2019,05,26,15,21,28.30
2019,05,26,15,22,28.30
2019,05,26,15,23,28.30
2019,05,26,15,24,28.30
2019,05,26,15,25,28.30
2019,05,26,15,26,28.30
2019,05,26,15,27,28.30
2019,05,26,15,28,28.30
2019,05,26,15,29,28.30
2019,05,26,15,30,28.40
2019,05,26,15,31,28.40
2019,05,26,15,32,28.40
2019,05,26,15,33,28.40
2019,05,26,15,34,28.50
2019,05,26,15,35,28.50
2019,05,26,15,36,28.60
2019,05,26,15,37,28.70
2019,05,26,15,38,28.70
2019,05,26,15,39,28.80
2019,05,26,15,40,28.80
2019,05,26,15,41,28.80
2019,05,26,15,42,28.80
2019,05,26,15,43,28.80
2019,05,26,15,44,28.80
2019,05,26,15,45,28.90
2019,05,26,15,46,28.90
2019,05,26,15,47,28.90
2019,05,26,15,48,28.90
2019,05,26,15,49,28.80
2019,05,26,15,50,28.80
2019,05,26,15,51,28.60
2019,05,26,15,52,28.60
2019,05,26,15,53,28.50
2019,05,26,15,54,28.50
2019,05,26,15,55,28.40
2019,05,26,15,56,28.30
2019,05,26,15,57,28.30
2019,05,26,15,58,28.40
2019,05,26,15,59,28.40
2019,05,26,16,00,28.40
2019,05,26,16,01,28.50
2019,05,26,16,02,28.60
2019,05,26,16,03,28.70
2019,05,26,16,04,28.70
2019,05,26,16,05,28.80
2019,05,26,16,06,28.80
2019,05,26,16,07,28.80
2019,05,26,16,08,28.80
2019,05,26,16,09,28.80
2019,05,26,16,10,28.90
2019,05,26,16,11,28.90
2019,05,26,16,12,29.00
2019,05,26,16,13,29.00
2019,05,26,16,14,29.00
2019,05,26,16,15,29.00
2019,05,26,16,16,29.00
2019,05,26,16,17,29.00
2019,05,26,16,18,29.00
2019,05,26,16,19,28.80
2019,05,26,16,20,28.50
2019,05,26,16,21,28.20
2019,05,26,16,22,27.90
2019,05,26,16,23,27.60
2019,05,26,16,24,27.30
2019,05,26,16,25,27.20
2019,05,26,16,26,27.00
2019,05,26,16,27,26.90
2019,05,26,16,28,26.80
2019,05,26,16,29,26.80
2019,05,26,16,30,26.70
2019,05,26,16,31,26.70
2019,05,26,16,32,26.70
2019,05,26,16,33,26.80
2019,05,26,16,34,26.80
2019,05,26,16,35,26.90
2019,05,26,16,36,26.90
2019,05,26,16,37,26.90
2019,05,26,16,38,27.00
2019,05,26,16,39,27.00
2019,05,26,16,40,27.10
2019,05,26,16,41,27.20
2019,05,26,16,42,27.20
2019,05,26,16,43,27.30
2019,05,26,16,44,27.40
2019,05,26,16,45,27.50
2019,05,26,16,46,27.50
2019,05,26,16,47,27.60
2019,05,26,16,48,27.60
2019,05,26,16,49,27.60
2019,05,26,16,50,27.60
2019,05,26,16,51,27.60
2019,05,26,16,52,27.50
2019,05,26,16,53,27.50
2019,05,26,16,54,27.50
2019,05,26,16,55,27.50
2019,05,26,16,56,27.40
2019,05,26,16,57,27.40
2019,05,26,16,58,27.40
2019,05,26,16,59,27.50
2019,05,26,17,00,27.50
2019,05,26,17,01,27.60
2019,05,26,17,02,27.70
2019,05,26,17,03,27.80
2019,05,26,17,04,27.90
2019,05,26,17,05,28.00
2019,05,26,17,06,28.10
2019,05,26,17,07,28.20
2019,05,26,17,08,28.30
2019,05,26,17,09,28.30
2019,05,26,17,10,28.40
2019,05,26,17,11,28.50
2019,05,26,17,12,28.50
2019,05,26,17,13,28.60
2019,05,26,17,14,28.60
2019,05,26,17,15,28.70
2019,05,26,17,16,28.70
2019,05,26,17,17,28.80
2019,05,26,17,18,28.80
2019,05,26,17,19,28.80
2019,05,26,17,20,28.90
2019,05,26,17,21,29.00
2019,05,26,17,22,29.00
2019,05,26,17,23,29.10
2019,05,26,17,24,29.10
2019,05,26,17,25,29.20
2019,05,26,17,26,29.30
2019,05,26,17,27,29.40
2019,05,26,17,28,29.40